Location: Innerarity Island Observatory
(30.3139°N, 87.4867°W)
Time: 21:47:00
(UTC-05:00)

OPAL - Visible Passes

Search period start: 20 April 2014 00:00
Search period end: 30 April 2014 00:00
Orbit: 745 x 796 km, 100.2° (Epoch: 20 April)

Date Brightness Start Highest point End Pass type
(mag) Time Alt. Az. Time Alt. Az. Time Alt. Az.
21 Apr 10.1 02:50:54 13° N 02:50:54 13° N 02:51:27 10° N visible
22 Apr 10.3 02:15:04 13° NNE 02:15:04 13° NNE 02:15:46 10° N visible
23 Apr 10.0 03:19:31 12° NNW 03:19:31 12° NNW 03:19:58 10° NNW visible
24 Apr 9.9 02:43:41 17° N 02:43:41 17° N 02:44:49 10° N visible
25 Apr 10.2 02:07:51 15° NNE 02:07:51 15° NNE 02:08:56 10° NNE visible
26 Apr 9.7 03:12:19 17° NNW 03:12:19 17° NNW 03:13:28 10° NNW visible
27 Apr 9.8 02:36:29 20° N 02:36:29 20° N 02:38:09 10° N visible
28 Apr 10.2 02:00:39 15° NE 02:00:39 15° NE 02:02:01 10° NNE visible
28 Apr 9.7 03:40:56 14° NW 03:40:56 14° NW 03:41:41 10° NNW visible
29 Apr 9.4 03:05:06 22° NNW 03:05:06 22° NNW 03:06:54 10° NNW visible
